Location: Pescara
(42.4670°N, 14.2170°E)
Time: 18:10:16
(UTC+02:00)

ISS - Pass Details

Date: 17 May 2021
Orbit: 417 x 422 km, 51.6° (Epoch: 18 June)

Event Time Altitude Azimuth Distance (km) Brightness Sun altitude
Rises 03:42:00 0° 301° (WNW) 2,374 0.0 -17.7°
Reaches altitude 10° 03:44:07 10° 297° (WNW) 1,507 -1.1 -17.5°
Maximum altitude 03:47:27 57° 219° (SW) 502 -3.8 -17.1°
Drops below altitude 10° 03:50:45 10° 139° (SE) 1,500 -1.0 -16.7°
Sets 03:52:52 0° 135° (SE) 2,362 0.0 -16.4°
